TimeEDT,TemperatureF,Dew PointF,Humidity,Sea Level PressureIn,VisibilityMPH,Wind Direction,Wind SpeedMPH,Gust SpeedMPH,PrecipitationIn,Events,Conditions,WindDirDegrees,DateUTC
12:15 AM,37.4,33.8,87,30.14,10.0,Calm,Calm,-,N/A,,Scattered Clouds,0,2013-10-28 04:15:00
12:35 AM,35.6,33.8,93,30.14,10.0,Calm,Calm,-,N/A,,Mostly Cloudy,0,2013-10-28 04:35:00
12:55 AM,35.6,33.8,93,30.14,10.0,Calm,Calm,-,N/A,,Overcast,0,2013-10-28 04:55:00
1:15 AM,35.6,33.8,93,30.13,10.0,Calm,Calm,-,N/A,,Scattered Clouds,0,2013-10-28 05:15:00
1:35 AM,35.6,33.8,93,30.14,10.0,Calm,Calm,-,N/A,,Clear,0,2013-10-28 05:35:00
1:55 AM,33.8,32.0,93,30.13,10.0,Calm,Calm,-,N/A,,Clear,0,2013-10-28 05:55:00
2:15 AM,33.8,33.8,100,30.14,10.0,Calm,Calm,-,N/A,,Clear,0,2013-10-28 06:15:00
2:35 AM,35.6,33.8,93,30.13,10.0,Calm,Calm,-,N/A,,Clear,0,2013-10-28 06:35:00
2:55 AM,33.8,32.0,93,30.14,10.0,Calm,Calm,-,N/A,,Clear,0,2013-10-28 06:55:00
3:15 AM,33.8,32.0,93,30.14,10.0,Calm,Calm,-,N/A,,Clear,0,2013-10-28 07:15:00
3:35 AM,33.8,33.8,100,30.14,10.0,Calm,Calm,-,N/A,,Clear,0,2013-10-28 07:35:00
3:55 AM,33.8,33.8,100,30.14,10.0,Calm,Calm,-,N/A,,Clear,0,2013-10-28 07:55:00
4:15 AM,33.8,32.0,93,30.15,10.0,Calm,Calm,-,N/A,,Clear,0,2013-10-28 08:15:00
4:35 AM,32.0,32.0,100,30.15,10.0,Calm,Calm,-,N/A,,Mostly Cloudy,0,2013-10-28 08:35:00
4:55 AM,33.8,33.8,100,30.16,10.0,Calm,Calm,-,N/A,,Overcast,0,2013-10-28 08:55:00
5:15 AM,35.6,33.8,93,30.16,10.0,Calm,Calm,-,N/A,,Overcast,0,2013-10-28 09:15:00
5:35 AM,35.6,33.8,93,30.16,10.0,Calm,Calm,-,N/A,,Overcast,0,2013-10-28 09:35:00
5:55 AM,33.8,33.8,100,30.17,10.0,Calm,Calm,-,N/A,,Scattered Clouds,0,2013-10-28 09:55:00
6:15 AM,32.0,32.0,100,30.18,10.0,Calm,Calm,-,N/A,,Clear,0,2013-10-28 10:15:00
6:35 AM,32.0,32.0,100,30.19,10.0,Calm,Calm,-,N/A,,Clear,0,2013-10-28 10:35:00
6:55 AM,32.0,32.0,100,30.20,10.0,Calm,Calm,-,N/A,,Clear,0,2013-10-28 10:55:00
7:15 AM,32.0,32.0,100,30.20,10.0,Calm,Calm,-,N/A,,Mostly Cloudy,0,2013-10-28 11:15:00
7:35 AM,32.0,32.0,100,30.20,10.0,Calm,Calm,-,N/A,,Mostly Cloudy,0,2013-10-28 11:35:00
7:55 AM,32.0,32.0,100,30.22,10.0,Calm,Calm,-,N/A,,Scattered Clouds,0,2013-10-28 11:55:00
8:15 AM,32.0,32.0,100,30.22,10.0,Calm,Calm,-,N/A,,Scattered Clouds,0,2013-10-28 12:15:00
8:35 AM,33.8,33.8,100,30.23,10.0,Calm,Calm,-,N/A,,Clear,0,2013-10-28 12:35:00
8:55 AM,37.4,35.6,93,30.25,10.0,Calm,Calm,-,N/A,,Clear,0,2013-10-28 12:55:00
9:15 AM,39.2,35.6,87,30.25,10.0,Calm,Calm,-,N/A,,Clear,0,2013-10-28 13:15:00
9:35 AM,41.0,37.4,87,30.25,10.0,SE,3.5,-,N/A,,Clear,130,2013-10-28 13:35:00
9:55 AM,42.8,35.6,76,30.27,10.0,SE,3.5,-,N/A,,Clear,130,2013-10-28 13:55:00
10:15 AM,42.8,35.6,76,30.27,10.0,Calm,Calm,-,N/A,,Clear,0,2013-10-28 14:15:00
10:35 AM,44.6,35.6,71,30.27,10.0,Calm,Calm,-,N/A,,Clear,0,2013-10-28 14:35:00
10:55 AM,46.4,37.4,71,30.27,10.0,Calm,Calm,-,N/A,,Clear,0,2013-10-28 14:55:00
11:15 AM,50.0,37.4,62,30.26,10.0,Calm,Calm,-,N/A,,Scattered Clouds,0,2013-10-28 15:15:00
11:35 AM,51.8,37.4,58,30.26,10.0,Calm,Calm,-,N/A,,Scattered Clouds,0,2013-10-28 15:35:00
11:55 AM,53.6,37.4,54,30.26,10.0,Calm,Calm,-,N/A,,Scattered Clouds,0,2013-10-28 15:55:00
12:15 PM,53.6,37.4,54,30.25,10.0,Calm,Calm,-,N/A,,Scattered Clouds,0,2013-10-28 16:15:00
12:35 PM,55.4,37.4,51,30.24,2.0,Calm,Calm,-,N/A,,Haze,0,2013-10-28 16:35:00
12:55 PM,57.2,39.2,51,30.23,7.0,Calm,Calm,-,N/A,,Scattered Clouds,0,2013-10-28 16:55:00
1:15 PM,57.2,37.4,48,30.22,0.5,Calm,Calm,-,N/A,,Haze,0,2013-10-28 17:15:00
1:35 PM,59.0,39.2,48,30.22,5.0,NE,3.5,-,N/A,,Haze,50,2013-10-28 17:35:00
1:55 PM,59.0,39.2,48,30.21,10.0,WNW,3.5,-,N/A,,Scattered Clouds,290,2013-10-28 17:55:00
2:15 PM,59.0,41.0,51,30.21,10.0,West,3.5,-,N/A,,Scattered Clouds,260,2013-10-28 18:15:00
2:35 PM,60.8,39.2,45,30.20,2.0,Calm,Calm,-,N/A,,Haze,0,2013-10-28 18:35:00
2:55 PM,60.8,41.0,48,30.20,4.0,Calm,Calm,-,N/A,,Haze,0,2013-10-28 18:55:00
3:15 PM,60.8,41.0,48,30.20,10.0,West,4.6,-,N/A,,Scattered Clouds,280,2013-10-28 19:15:00
3:35 PM,60.8,39.2,45,30.20,10.0,WNW,3.5,-,N/A,,Clear,290,2013-10-28 19:35:00
3:55 PM,60.8,39.2,45,30.20,7.0,Calm,Calm,-,N/A,,Scattered Clouds,0,2013-10-28 19:55:00
4:15 PM,59.0,39.2,48,30.20,10.0,Calm,Calm,-,N/A,,Scattered Clouds,0,2013-10-28 20:15:00
4:35 PM,60.8,41.0,48,30.21,10.0,Calm,Calm,-,N/A,,Scattered Clouds,0,2013-10-28 20:35:00
4:55 PM,59.0,39.2,48,30.21,10.0,SE,3.5,-,N/A,,Clear,140,2013-10-28 20:55:00
5:15 PM,59.0,41.0,51,30.21,10.0,SSE,5.8,-,N/A,,Clear,150,2013-10-28 21:15:00
5:35 PM,57.2,41.0,55,30.22,10.0,Calm,Calm,-,N/A,,Clear,0,2013-10-28 21:35:00
5:55 PM,57.2,41.0,55,30.22,10.0,Calm,Calm,-,N/A,,Clear,0,2013-10-28 21:55:00
6:15 PM,55.4,39.2,54,30.22,10.0,NNE,3.5,-,N/A,,Scattered Clouds,20,2013-10-28 22:15:00
6:35 PM,51.8,41.0,67,30.23,10.0,Calm,Calm,-,N/A,,Scattered Clouds,0,2013-10-28 22:35:00
6:55 PM,50.0,39.2,66,30.24,10.0,Calm,Calm,-,N/A,,Scattered Clouds,0,2013-10-28 22:55:00
7:15 PM,46.4,39.2,76,30.25,10.0,Calm,Calm,-,N/A,,Scattered Clouds,0,2013-10-28 23:15:00
7:35 PM,46.4,39.2,76,30.25,10.0,Calm,Calm,-,N/A,,Clear,0,2013-10-28 23:35:00
7:55 PM,44.6,37.4,76,30.25,10.0,Calm,Calm,-,N/A,,Clear,0,2013-10-28 23:55:00
8:15 PM,42.8,37.4,81,30.25,10.0,Calm,Calm,-,N/A,,Clear,0,2013-10-29 00:15:00
8:35 PM,42.8,37.4,81,30.25,10.0,Calm,Calm,-,N/A,,Clear,0,2013-10-29 00:35:00
8:55 PM,42.8,37.4,81,30.25,10.0,Calm,Calm,-,N/A,,Scattered Clouds,0,2013-10-29 00:55:00
9:15 PM,44.6,37.4,76,30.26,10.0,Calm,Calm,-,N/A,,Scattered Clouds,0,2013-10-29 01:15:00
9:35 PM,42.8,37.4,81,30.27,10.0,Calm,Calm,-,N/A,,Scattered Clouds,0,2013-10-29 01:35:00
9:55 PM,42.8,37.4,81,30.27,10.0,Calm,Calm,-,N/A,,Scattered Clouds,0,2013-10-29 01:55:00
10:15 PM,41.0,37.4,87,30.28,10.0,Calm,Calm,-,N/A,,Clear,0,2013-10-29 02:15:00
10:35 PM,42.8,37.4,81,30.28,10.0,WNW,3.5,-,N/A,,Clear,300,2013-10-29 02:35:00
10:55 PM,42.8,37.4,81,30.28,10.0,Calm,Calm,-,N/A,,Clear,0,2013-10-29 02:55:00
11:15 PM,41.0,37.4,87,30.28,10.0,Calm,Calm,-,N/A,,Clear,0,2013-10-29 03:15:00
11:35 PM,41.0,37.4,87,30.28,10.0,Calm,Calm,-,N/A,,Clear,0,2013-10-29 03:35:00
11:55 PM,41.0,37.4,87,30.28,10.0,WNW,3.5,-,N/A,,Scattered Clouds,300,2013-10-29 03:55:00